This demonstration page uses our WeatherBlox Daily Observations layout. Learn more.

Left ArrowRight Arrow

Hourly Observations for June 3, 2021

Temp ( °F °C ) Dew Point ( °F °C ) Humidity (%) Winds ( mph kmh ) Pressure ( in mb ) Visibility ( mi km ) Precip ( " mm )
12:59 am 00:59 Mostly Cloudy with Light Rain 70 21.1 67 19.4 90 90 S 6 9 30.13 1020 5 8 0.01 0.25
1:59 am 01:59 Cloudy with Light Rain 70 21.1 67 19.4 90 90 SSE 3 6 30.11 1020 7 11 0.14 3.56
2:59 am 02:59 Cloudy with Heavy Rain 71 21.7 68 20 90 90 Calm 30.09 1019 2 3 0.11 2.79
3:06 am 03:06 Cloudy with Rain 71 21.7 68 20 90 90 VRB 5 7 30.09 1019 2 3 0.03 0.76
3:39 am 03:39 Cloudy with Rain 71 21.7 68 20 90 90 SSW 9 15 30.09 1019 2 3 0.17 4.32
3:55 am 03:55 Cloudy 72 22 68 20 88 88 S 6 9 30.08 1019 10 16 0.23 5.84
3:59 am 03:59 Cloudy 71 21.7 68 20 90 90 S 6 9 30.08 1019 10 16 0.24 6.10
4:09 am 04:09 Mostly Cloudy 71 21.7 68 20 90 90 S 7 11 30.09 1019 10 16 0.03 0.76
4:59 am 04:59 Mostly Cloudy 71 21.7 68 20 90 90 SW 6 9 30.08 1019 10 16 0.14 3.56
5:45 am 05:45 Mostly Cloudy 72 22.2 68 20 87 87 SSW 7 11 30.08 1019 10 16 0.00 0.00
5:59 am 05:59 Mostly Cloudy 72 22.2 68 20 87 87 SSW 9 15 30.09 1019 10 16 0.00 0.00
6:25 am 06:25 Cloudy with Light Rain 72 22.2 69 20.6 91 91 S 7 11 30.08 1019 2 3 0.00 0.00
6:32 am 06:32 Cloudy with Light Rain 72 22.2 69 20.6 91 91 SSW 7 11 30.08 1019 2 2 0.00 0.00
6:35 am 06:35 Cloudy with Light Rain 72 22.2 69 20.6 91 91 SSW 6 9 30.08 1019 3 5 0.00 0.00
6:59 am 06:59 Cloudy 72 22.2 69 20.6 91 91 SSW 5 7 30.09 1019 10 16 0.00 0.00
7:59 am 07:59 Mostly Cloudy 72 22.2 69 20.6 91 91 SSW 7 11 30.10 1019 10 16 0.03 0.76
8:59 am 08:59 Mostly Cloudy 73 22.8 70 21.1 90 90 SSW 7 11 30.11 1020 10 16 0.02 0.51
9:33 am 09:33 Mostly Cloudy 74 23.3 70 21.1 88 88 SSW 8 13 30.10 1019 10 16 0.01 0.25
9:59 am 09:59 Mostly Cloudy 76 24.4 71 21.7 85 85 SSW 6 9 30.10 1019 10 16 0.02 0.51
12:59 pm 12:59 Mostly Cloudy 81 27.2 71 21.7 72 72 S 8 13 30.08 1019 10 16 0.00 0.00
1:59 pm 13:59 Cloudy 82 27.8 69 20.6 65 65 SSW 15 24 30.06 1018 10 16 0.00 0.00
2:59 pm 14:59 Cloudy 77 25 68 20 74 74 S 15 24 30.07 1018 10 16 0.00 0.00
3:59 pm 15:59 Cloudy with Light Rain 74 23.3 70 21.1 88 88 SSW 10 17 30.06 1018 8 13 0.02 0.51
4:59 pm 16:59 Cloudy with Light Rain 73 22.8 70 21.1 90 90 SSW 8 13 30.09 1019 3 5 0.03 0.76
5:59 pm 17:59 Mostly Cloudy with Light Rain 73 22.8 69 20.6 87 87 S 9 15 30.07 1018 3 4 0.02 0.51
6:16 pm 18:16 Cloudy with Light Rain 71 21.7 67 19.4 87 87 S 9 15 30.06 1018 4 6 0.01 0.25
6:59 pm 18:59 Mostly Cloudy with Mist and Fog 73 22.8 70 21.1 90 90 S 9 15 30.06 1018 5 8 0.03 0.76
7:59 pm 19:59 Mostly Cloudy 72 22.2 68 20 87 87 S 8 13 30.06 1018 9 14 0.02 0.51
8:26 pm 20:26 Mostly Cloudy 72 22.2 69 20.6 91 91 S 13 20 30.06 1018 9 14 0.02 0.51
8:59 pm 20:59 Cloudy with Light Rain 72 22.2 69 20.6 91 91 S 8 13 30.07 1018 6 10 0.03 0.76
9:59 pm 21:59 Mostly Cloudy 71 21.7 68 20 90 90 S 7 11 30.05 1018 10 16 0.03 0.76
10:42 pm 22:42 Mostly Cloudy 71 21.7 69 20.6 94 94 S 10 17 30.05 1018 10 16 0.03 0.76
10:59 pm 22:59 Mostly Cloudy 72 22.2 68 20 87 87 S 13 20 30.05 1018 10 16 0.03 0.76
11:59 pm 23:59 Mostly Cloudy 72 22.2 68 20 87 87 S 12 19 30.03 1017 10 16 0.00 0.00

Powered by AerisWeather